Cloud_Cover
100 100 100 100 100 100 100 100 100 100 52 86 93 78 57 23 37 99 100 100 100 100 100 78 67 100 100 100 100 100 100 100 100 100 100 100 100 100 100 100 97 74 78 5
71 54 99 100 100 100 99 80 6 90 75 97 100 39 77 33 72 100 99 100 100 100 55 87 100 100 100 88 100 100 100 100 100 100 100 100 100 100 100 100 66 99 68 5
88 74 40 15 99 79 95 98 80 66 100 100 90 85 100 100 100 100 8 7 17 5 100 100 100 100 100 99 100 100 100 93 86 100 100 100 100 100 100 100 100 100 79 5
95 50 84 44 100 41 63 92 94 45 100 100 95 96 93 100 100 100 42 74 62 63 8 7 87 100 100 100 100 100 90 92 100 100 100 100 100 100 100 100 83 49 12 5
81 5 2 5 7 100 97 99 100 16 100 100 100 100 100 100 100 100 91 85 100 100 100 99 96 100 100 100 100 100 100 100 100 100 100 99 84 64 32 7 51 5 33 5
38 58 42 72 66 97 98 52 98 100 100 100 100 100 100 100 100 100 64 74 100 100 100 100 100 100 100 100 100 100 100 100 100 100 100 100 27 63 6 75 5 38 83 66
89 81 11 69 57 99 48 98 12 96 99 100 100 100 100 100 100 100 100 100 100 100 100 100 100 100 100 100 100 100 100 100 100 100 100 100 100 77 82 40 87 100 93 97
96 100 46 100 100 40 100 62 89 100 100 100 100 100 100 100 100 100 100 100 100 100 100 100 100 100 100 100 100 100 100 100 100 83 18 42 96 100 45 90 100 100 100 90
100 100 100 5 92 100 100 100 98 100 100 100 100 100 100 100 100 100 100 100 100 100 100 100 100 100 100 100 100 100 100 100 78 5 68 60 10 53 100 100 100 100 100 100
70 100 73 16 73 100 100 100 100 100 100 100 100 100 100 100 100 100 100 100 81 69 100 100 100 100 100 97 100 100 100 100 76 92 100 94 100 100 100 100 100 100 100 100
100 100 100 64 84 100 100 100 100 100 100 100 100 100 100 100 100 100 100 100 100 97 55 74 90 99 100 98 99 94 59 80 88 100 30 84 89 100 100 100 96 94 92 99
100 100 100 100 100 100 100 100 100 100 100 100 100 100 100 100 100 100 99 58 28 25 6 100 100 100 60 24 63 96 98 16 72 99 100 94 96 100 100 100 100 43 100 100
100 100 100 60 97 100 100 100 100 100 100 100 100 100 100 59 59 71 99 89 70 74 5 5 6 0 0 0 2 5 59 82 86 66 78 93 100 100 100 100 100 67 95 99
100 96 100 100 100 100 100 100 100 100 100 100 100 100 100 100 100 100 100 25 5 6 17 2 0 0 0 1 5 5 5 4 5 5 17 74 72 96 88 100 100 93 98 100
100 99 100 100 100 100 100 100 100 100 95 100 100 100 100 99 36 39 26 62 8 2 0 0 0 0 0 0 0 2 6 80 76 39 5 25 84 100 93 100 100 100 100 100
100 100 100 100 100 100 100 100 100 100 58 44 70 84 98 81 76 48 5 5 5 4 0 0 0 0 0 0 0 0 0 0 3 5 7 89 100 100 100 100 100 100 100 100
100 100 100 100 100 100 100 100 100 100 93 80 79 66 40 5 5 5 5 4 1 5 3 0 3 5 7 0 0 0 0 0 0 64 100 100 100 100 100 100 100 100 100 100
100 100 100 100 100 100 100 80 100 95 94 96 38 14 6 7 21 63 87 100 89 85 5 55 100 100 70 0 0 0 2 17 82 5 62 96 100 100 100 100 100 100 100 100
58 100 98 98 60 92 100 100 100 91 87 33 5 21 62 97 48 35 64 100 100 81 18 63 100 43 0 0 1 19 26 75 40 22 86 100 100 100 100 100 100 100 100 100
100 100 100 100 100 100 100 100 100 100 46 36 99 99 37 36 59 100 100 92 47 16 7 3 3 0 0 1 27 22 68 94 90 98 88 100 100 100 100 100 100 100 100 100
100 100 100 100 100 100 100 100 100 12 50 90 95 100 98 100 100 100 100 80 23 32 0 2 0 0 1 6 44 39 88 100 97 75 100 100 100 100 100 100 98 97 100 100
100 100 100 100 100 100 100 73 11 90 100 100 100 100 100 92 48 70 86 62 30 97 18 1 0 5 22 55 93 78 98 100 100 100 100 100 100 100 100 100 97 100 100 100
100 100 100 100 95 100 100 68 100 100 100 100 100 100 100 100 100 64 24 7 54 3 2 6 10 28 99 88 97 100 100 100 100 100 100 100 100 100 100 100 100 100 100 98
100 100 100 100 100 100 100 100 99 100 100 100 100 49 30 60 35 4 0 5 10 6 10 5 18 98 100 100 100 100 100 100 100 100 100 100 100 100 100 100 100 100 99 81
100 100 100 100 100 100 100 100 100 100 83 92 83 41 97 6 1 2 4 5 12 19 64 69 53 97 100 100 100 100 100 100 100 100 100 100 100 100 98 100 99 93 81 88
100 62 46 96 100 100 90 100 86 76 92 24 2 1 4 4 9 23 16 6 26 62 99 97 98 100 99 100 100 100 100 100 100 100 100 100 98 99 100 99 88 80 77 89
93 83 98 100 100 100 95 76 28 9 8 2 0 50 6 10 7 24 28 57 68 98 93 100 100 100 98 100 100 100 100 100 100 100 100 100 97 95 100 98 78 81 95 100